Location: Sungai Anya
(2.6167°N, 114.0500°E)
Time: 15:24:23
(UTC+00:00)

Cosmos 1153 Rocket - Pass Details

Date: 04 June 2022
Orbit: 954 x 1005 km, 82.9° (Epoch: 03 July)

Event Time Altitude Azimuth Distance (km) Brightness Sun altitude
Rises 20:21:53 0° 18° (NNE) 3,718 8.2 -26.4°
Reaches altitude 10° 20:24:49 10° 30° (NNE) 2,770 7.6 -25.8°
Maximum altitude 20:30:05 28° 86° (E) 1,797 6.5 -24.6°
Drops below altitude 10° 20:35:20 10° 143° (SE) 2,761 7.0 -23.4°
Sets 20:38:14 0° 154° (SSE) 3,705 7.5 -22.8°
